Pensacola NAS, FL

11:24 PM CDT on May 25, 2017 (GMT -0500)
Pensacola Naval Air Station

Weather History for KNPA - March, 2014

Change the Weather History Date:

Friday, March 21, 2014

  Actual Average Record
Temperature  
Mean Temperature 58 °F -  
Max Temperature 72 °F 67 °F 80 °F (2004)
Min Temperature 45 °F 50 °F 39 °F (2016)
Degree Days  
Heating Degree Days 6    
Growing Degree Days 8 (Base 50)    
Moisture  
Dew Point 51 °F    
Average Humidity 88    
Maximum Humidity 100    
Minimum Humidity 27    
Precipitation  
Precipitation 0.00 in - - ()
Sea Level Pressure  
Sea Level Pressure 30.06 in    
Wind  
Wind Speed 3 mph (South)    
Max Wind Speed 14 mph    
Max Gust Speed -    
Visibility 5 miles    
Events Fog    
Averages and records for this station are not official NWS values.
T = Trace of Precipitation, MM = Missing Value Source: NWS Daily Summary

Daily Weather History Graph

Daily Weather History Graph

Search for Another Location

Airport or City:

Trip Planner

Search our weather history database for the weather conditions in past years. The results will help you decide how hot, cold, wet, or windy it might be!

Date:

Astronomy

Mar. 21, 2014 Rise Set
Actual Time 6:51 AM CDT 7:01 PM CDT
Civil Twilight 6:27 AM CDT 7:25 PM CDT
Nautical Twilight 5:59 AM CDT 7:53 PM CDT
Astronomical Twilight 5:31 AM CDT 8:21 PM CDT
Moon No Moon Rise 10:02 AM CDT (3/21)
Length of Visible Light 12h 57m
Length of Day
12h 09m
Waning Gibbous, 75% of the Moon is Illuminated
Mar 21
Waning Gibbous
Mar 23
Last Quarter
Mar 30
New
Apr 7
First Quarter
Apr 15
Full

Hourly Weather History & Observations

Time (CDT) Temp. Windchill Dew Point Humidity Pressure Visibility Wind Dir Wind Speed Gust Speed Precip Events Conditions
12:49 AM 50.0 °F - 48.9 °F 96% 30.08 in 2.0 mi NW 3.5 mph - N/A   Clear
12:56 AM 50.0 °F - 50.0 °F 100% 30.08 in 5.0 mi NW 3.5 mph - N/A   Clear
1:19 AM 48.9 °F - 48.9 °F 100% 30.07 in 1.5 mi Calm Calm - N/A   Partly Cloudy
1:22 AM 48.9 °F - 48.9 °F 100% 30.07 in 0.8 mi Calm Calm - N/A   Mist
1:35 AM 50.0 °F - 50.0 °F 100% 30.07 in 1.2 mi Calm Calm - N/A   Partly Cloudy
1:38 AM 50.0 °F - 50.0 °F 100% 30.07 in 3.0 mi Calm Calm - N/A   Partly Cloudy
1:54 AM 48.2 °F - 48.2 °F 100% 30.07 in 1.5 mi Calm Calm - N/A   Clear
1:56 AM 48.0 °F - 48.0 °F 100% 30.08 in 1.0 mi Calm Calm - N/A   Clear
2:03 AM 46.9 °F - 46.9 °F 100% 30.07 in 0.2 mi Calm Calm - N/A Fog Fog
2:11 AM 48.0 °F - 48.0 °F 100% 30.07 in 0.8 mi Calm Calm - N/A   Clear
2:22 AM 48.0 °F - 48.0 °F 100% 30.07 in 1.0 mi Calm Calm - N/A   Mist
2:40 AM 48.0 °F - 48.0 °F 100% 30.07 in 2.0 mi Calm Calm - N/A   Partly Cloudy
2:54 AM 48.2 °F - 48.2 °F 100% 30.07 in 4.0 mi NNW 4.6 mph - N/A   Clear
2:56 AM 48.0 °F - 48.0 °F 100% 30.07 in 5.0 mi NNW 4.6 mph - N/A   Clear
3:56 AM 48.0 °F - 46.9 °F 96% 30.06 in 10.0 mi North 3.5 mph - N/A   Clear
4:56 AM 46.0 °F 44.8 °F 45.0 °F 96% 30.07 in 10.0 mi North 3.5 mph - N/A   Clear
5:56 AM 46.0 °F 44.8 °F 44.1 °F 93% 30.09 in 10.0 mi NNW 3.5 mph - N/A   Partly Cloudy
6:56 AM 45.0 °F 43.5 °F 44.1 °F 97% 30.10 in 10.0 mi NNE 3.5 mph - N/A   Scattered Clouds
7:56 AM 54.0 °F - 46.0 °F 75% 30.11 in 10.0 mi NNE 4.6 mph - N/A   Scattered Clouds
8:56 AM 61.0 °F - 46.0 °F 58% 30.13 in 10.0 mi ENE 5.8 mph - N/A   Scattered Clouds
9:56 AM 66.0 °F - 44.1 °F 45% 30.14 in 10.0 mi Variable 6.9 mph - N/A   Mostly Cloudy
10:56 AM 69.1 °F - 37.9 °F 32% 30.13 in 10.0 mi East 13.8 mph - N/A   Mostly Cloudy
11:56 AM 72.0 °F - 36.0 °F 27% 30.12 in 10.0 mi East 11.5 mph - N/A   Mostly Cloudy
12:56 PM 69.1 °F - 45.0 °F 42% 30.10 in 10.0 mi SE 13.8 mph - N/A   Mostly Cloudy
1:56 PM 69.1 °F - 48.9 °F 49% 30.08 in 10.0 mi SE 10.4 mph - N/A   Mostly Cloudy
2:56 PM 70.0 °F - 50.0 °F 49% 30.06 in 10.0 mi SE 9.2 mph - N/A   Mostly Cloudy
3:56 PM 69.1 °F - 53.1 °F 57% 30.04 in 10.0 mi SE 11.5 mph - N/A   Mostly Cloudy
4:56 PM 66.9 °F - 55.9 °F 68% 30.04 in 10.0 mi SSE 9.2 mph - N/A   Mostly Cloudy
5:56 PM 66.0 °F - 57.9 °F 75% 30.04 in 10.0 mi South 9.2 mph - N/A   Mostly Cloudy
6:56 PM 63.0 °F - 59.0 °F 87% 30.05 in 10.0 mi South 5.8 mph - N/A   Mostly Cloudy
7:56 PM 61.0 °F - 59.0 °F 93% 30.04 in 10.0 mi South 4.6 mph - N/A   Mostly Cloudy
8:56 PM 59.0 °F - 57.9 °F 96% 30.05 in 7.0 mi Calm Calm - N/A   Scattered Clouds
9:56 PM 57.9 °F - 57.9 °F 100% 30.05 in 10.0 mi SW 3.5 mph - N/A Fog Shallow Fog
10:15 PM 57.0 °F - 57.0 °F 100% 30.04 in 1.5 mi SW 3.5 mph - N/A   Clear
10:24 PM 57.9 °F - 57.0 °F 97% 30.04 in 0.8 mi Calm Calm - N/A   Clear
10:29 PM 57.9 °F - 57.0 °F 97% 30.03 in 2.0 mi South 3.5 mph - N/A   Clear
10:36 PM 57.0 °F - 57.0 °F 100% 30.04 in 3.0 mi Calm Calm - N/A   Clear
10:56 PM 57.0 °F - 57.0 °F 100% 30.05 in 4.0 mi SW 3.5 mph - N/A   Clear
11:02 PM 57.0 °F - 57.0 °F 100% 30.04 in 1.5 mi SSW 3.5 mph - N/A   Clear
11:09 PM 55.9 °F - 55.9 °F 100% 30.04 in 0.2 mi SSW 3.5 mph - N/A Fog Fog
11:18 PM 55.9 °F - 55.9 °F 100% 30.03 in 1.0 mi SSW 3.5 mph - N/A   Mist
11:20 PM 55.9 °F - 55.9 °F 100% 30.03 in 2.5 mi South 3.5 mph - N/A   Partly Cloudy
11:27 PM 57.9 °F - 57.0 °F 97% 30.03 in 5.0 mi SSW 3.5 mph - N/A   Partly Cloudy
11:45 PM 57.9 °F - 57.0 °F 97% 30.03 in 1.5 mi Calm Calm - N/A   Clear
11:47 PM 57.9 °F - 57.0 °F 97% 30.03 in 1.0 mi Calm Calm - N/A   Mist
11:54 PM 57.2 °F - 57.2 °F 100% 30.04 in 0.5 mi Calm Calm - N/A Fog Fog
11:56 PM 57.0 °F - 57.0 °F 100% 30.05 in 0.8 mi Calm Calm - N/A   Mist